Lapse_Rate
7.2 7.3 7.3 7.1 7.0 6.7 4.9 3.9 4.5 4.4 4.7 4.8 5.0 5.2 5.4 5.5 5.5 4.6 4.3 4.8 5.1 5.2 5.4 5.6 5.7 5.9 5.8 5.7 5.9 6.1 6.6 6.6 6.7 6.7 7.1 7.0 6.9 6.9 6.8 6.9 6.7 6.6 6.8 6.8 6.9 6.8 6.9 6.7 6.6
7.2 7.2 7.0 7.0 6.9 6.1 4.0 3.6 4.2 4.1 4.2 4.3 4.4 4.7 5.2 5.4 4.8 4.0 3.6 4.1 4.4 4.7 4.8 5.1 5.4 5.7 6.0 6.1 6.1 6.3 6.3 6.5 6.6 6.9 6.9 7.0 7.1 6.9 6.7 6.5 6.7 6.6 6.5 6.8 7.0 6.9 7.0 7.0 6.8
7.3 7.2 7.0 7.0 6.5 4.9 4.0 4.0 4.0 4.0 4.2 4.2 4.1 4.2 4.4 4.1 3.5 3.7 4.1 4.0 3.9 3.9 4.2 4.7 4.9 5.2 5.6 6.1 6.4 6.4 6.5 6.7 6.8 6.5 6.9 7.0 7.0 6.8 6.9 6.6 6.5 6.8 6.7 6.7 6.8 7.0 7.0 7.0 6.9
7.4 7.0 6.8 6.6 5.5 4.3 3.9 3.9 3.7 3.8 3.5 3.7 3.6 4.1 3.8 3.6 3.5 4.0 3.8 3.7 3.9 4.2 4.5 4.7 4.8 5.0 5.3 5.6 5.8 6.2 6.4 6.4 6.5 6.8 6.7 6.8 7.0 7.0 6.8 6.8 6.5 6.8 7.1 6.8 6.8 6.8 6.9 7.0 6.9
7.3 7.0 6.6 5.2 4.4 3.8 3.7 3.4 3.4 3.6 3.6 4.1 4.0 3.8 3.7 3.7 3.7 3.7 4.0 4.0 3.8 4.0 3.9 3.9 4.0 4.2 4.6 5.0 5.3 5.5 5.9 6.3 6.5 6.6 6.8 6.8 6.8 6.9 7.0 7.1 6.7 6.8 6.6 6.9 6.7 6.9 7.0 7.0 6.9
6.9 6.7 5.9 4.9 4.0 3.3 3.2 3.2 3.2 3.3 3.7 3.7 3.6 3.6 3.9 4.0 3.8 3.8 3.8 3.7 3.6 3.6 3.5 3.6 3.8 4.2 4.4 4.5 4.7 5.0 5.2 5.5 5.9 6.3 6.5 6.6 6.7 6.7 7.0 7.0 7.1 6.9 6.6 6.6 6.7 6.9 6.9 6.9 7.0
6.7 6.4 5.9 4.4 3.5 3.2 3.3 3.1 3.2 3.3 3.3 3.4 3.6 3.7 3.8 3.5 3.6 3.4 3.2 3.1 3.3 3.6 3.8 4.0 4.1 4.1 4.1 4.2 4.3 4.4 4.6 5.1 5.3 5.5 5.8 6.1 6.4 6.5 6.5 6.7 6.8 7.0 6.8 6.4 6.5 6.8 7.0 6.7 6.7
6.5 6.1 5.0 3.8 3.4 3.1 2.9 2.9 3.1 3.0 3.3 3.4 3.6 3.6 3.6 3.5 3.3 3.0 3.1 3.3 3.4 3.5 3.7 3.9 4.0 4.1 4.1 4.1 4.1 4.2 4.2 4.3 4.7 5.0 5.3 5.6 6.0 6.4 6.7 6.5 5.7 6.1 6.9 6.7 6.5 6.6 6.6 6.6 6.2
6.3 6.1 4.9 4.2 3.6 3.4 2.9 2.9 2.9 3.2 3.2 3.5 3.7 3.5 3.5 3.2 3.1 3.1 3.1 3.3 3.6 3.9 4.3 4.6 4.7 4.6 4.7 4.9 5.0 4.8 4.7 4.7 4.7 4.7 4.9 5.1 5.5 5.8 6.1 6.6 6.3 6.1 6.3 6.3 6.5 6.4 6.5 6.4 6.1
6.0 5.8 4.7 4.1 3.8 3.6 3.3 3.0 3.3 3.2 3.4 3.7 3.4 3.2 3.0 3.0 3.0 3.3 3.8 4.1 4.3 4.6 4.9 4.9 4.8 5.0 5.1 5.3 5.3 5.5 5.6 5.4 5.2 5.2 5.2 5.1 5.2 5.3 5.8 6.1 6.5 6.4 6.2 6.2 6.2 6.2 6.1 6.3 5.6
5.7 5.4 4.3 3.6 3.4 3.2 3.4 3.2 3.2 3.3 3.7 3.1 3.3 3.3 3.2 3.3 3.8 4.2 4.3 4.6 4.9 4.9 4.9 5.1 5.3 5.3 5.4 5.6 5.6 5.5 5.7 5.8 5.6 5.4 5.2 5.4 5.4 5.3 5.3 5.8 6.0 6.4 6.5 6.4 6.2 6.1 5.7 6.1 5.7
5.6 4.2 4.2 3.5 3.1 3.0 3.1 3.5 3.8 3.5 3.4 3.3 3.4 3.4 3.7 4.1 4.3 4.6 4.8 5.0 5.0 5.1 5.3 5.4 5.6 5.7 5.8 5.7 5.8 5.8 5.9 6.0 5.8 5.7 5.6 5.5 5.5 5.6 5.7 5.5 5.9 6.1 6.4 6.5 6.6 6.2 6.1 5.7 5.7
5.1 3.9 3.6 3.1 2.9 3.0 3.5 3.7 3.8 3.5 3.5 3.5 3.6 3.8 4.2 4.5 4.8 5.0 5.1 5.2 5.3 5.5 5.7 5.8 5.7 5.6 5.6 5.6 5.7 5.8 5.9 5.9 5.9 5.9 5.9 6.0 5.9 5.6 5.9 5.8 5.7 6.0 6.0 6.3 6.8 6.0 6.2 5.2 5.7
4.2 3.8 3.4 3.1 3.3 3.5 3.9 3.9 3.9 3.8 3.7 3.8 4.0 4.2 4.7 5.1 5.2 5.2 5.3 5.4 5.5 5.5 5.5 5.5 5.5 5.5 5.5 5.6 5.7 5.9 6.0 6.0 6.1 6.1 6.0 6.0 6.1 6.1 6.0 6.1 5.7 5.7 6.1 6.2 6.0 6.1 4.4 4.9 5.8
4.2 4.8 3.4 3.3 3.5 3.6 3.5 4.0 3.7 3.6 3.5 3.9 4.2 4.8 5.1 5.2 5.2 5.2 5.3 5.4 5.4 5.4 5.4 5.4 5.5 5.5 5.6 5.6 5.8 5.9 5.9 5.8 5.8 5.8 5.8 5.8 5.7 6.0 6.3 6.2 6.1 5.7 5.7 6.0 6.1 5.8 5.7 5.6 4.7
4.5 4.4 3.8 3.4 3.5 3.5 3.6 3.6 3.6 3.7 3.6 4.0 4.5 4.9 5.0 5.0 5.0 5.2 5.4 5.5 5.5 5.4 5.4 5.4 5.6 5.7 5.8 5.9 5.9 5.8 5.8 5.9 6.0 5.9 5.6 5.5 5.6 5.6 6.1 6.3 6.1 5.9 5.8 5.7 5.8 5.8 5.6 5.4 5.2
4.5 4.5 4.5 3.9 3.8 3.7 4.0 4.1 3.8 3.7 3.6 4.2 4.5 4.7 4.7 4.8 5.0 5.4 5.6 5.6 5.4 5.4 5.4 5.5 5.7 5.8 5.8 5.8 5.7 5.7 5.7 5.8 5.8 5.8 5.6 5.3 5.2 5.6 5.9 6.0 5.9 6.0 6.0 6.1 5.9 5.7 5.8 5.4 5.3
5.6 5.2 4.8 4.7 4.4 4.1 4.1 4.2 4.2 4.0 3.9 4.3 4.5 4.7 4.8 5.0 5.4 5.7 5.7 5.6 5.5 5.4 5.4 5.6 5.7 5.8 5.6 5.6 5.7 5.7 5.5 5.4 5.3 5.2 5.1 5.2 5.5 5.7 5.9 5.8 5.8 5.9 6.0 6.6 6.2 6.0 5.7 5.8 5.6
5.3 5.3 5.1 4.6 4.3 4.1 4.1 4.4 4.6 4.5 4.5 4.7 4.9 4.8 4.8 5.3 5.6 5.7 5.6 5.6 5.4 5.3 5.6 5.6 5.6 5.6 5.5 5.6 5.4 5.3 5.0 4.9 5.0 5.0 5.2 5.8 6.1 6.1 6.0 5.9 5.9 5.9 6.2 7.1 7.2 6.6 6.2 5.7 5.7
5.4 5.1 4.5 4.2 4.3 4.3 4.4 4.6 4.8 4.8 5.0 5.1 4.9 5.0 5.2 5.5 5.6 5.4 5.5 5.5 5.4 5.5 5.5 5.5 5.5 5.4 5.4 5.2 5.1 4.8 4.8 5.1 5.0 5.2 5.8 6.1 6.4 6.6 6.2 6.0 6.1 6.2 6.6 7.2 7.5 7.4 7.1 5.8 5.7
5.3 5.2 5.1 5.0 4.5 4.5 4.4 4.6 4.9 5.1 5.3 5.2 5.2 5.2 5.3 5.4 5.4 5.5 5.5 5.6 5.4 5.6 5.5 5.4 5.4 5.2 5.1 5.0 4.9 5.0 5.2 5.2 5.3 5.6 6.2 6.3 6.9 7.5 7.3 7.1 7.0 7.1 7.1 7.1 7.3 7.3 7.1 6.5 5.7
5.2 5.0 5.1 5.1 4.7 4.7 4.4 4.7 5.4 5.4 5.4 5.7 5.6 5.2 5.2 5.3 5.4 5.5 5.6 5.6 5.5 5.6 5.5 5.3 5.1 5.1 5.0 5.0 4.9 5.0 5.0 5.2 5.5 6.0 6.3 6.8 7.4 7.6 7.6 7.6 7.4 7.4 7.4 7.2 7.1 7.2 6.8 6.7 5.9
5.3 5.0 4.9 4.8 4.7 4.6 4.5 4.2 5.5 5.5 6.1 6.0 5.7 5.3 5.1 5.3 5.5 5.6 5.7 5.6 5.5 5.5 5.3 5.2 5.0 5.0 5.0 4.9 5.0 5.1 5.2 5.4 5.7 6.2 6.3 7.1 7.5 7.3 7.3 7.3 7.2 7.3 7.4 7.1 7.2 7.0 6.8 6.5 6.1
5.1 4.8 4.6 4.7 4.8 4.5 4.9 4.6 6.0 6.0 6.3 6.1 5.8 5.3 5.3 5.5 5.5 5.8 5.6 5.3 5.5 5.5 5.2 5.0 5.0 5.0 4.9 5.0 5.0 5.1 5.3 5.5 5.9 6.3 6.5 7.3 7.3 7.1 7.0 7.0 7.0 7.1 7.2 7.1 7.0 7.0 6.8 6.5 6.3
4.9 4.8 4.5 3.4 2.8 3.2 4.8 4.8 6.3 6.4 6.5 6.3 6.0 5.6 5.4 5.4 5.5 5.7 5.3 5.4 5.6 5.4 5.2 4.9 4.8 4.9 4.9 5.0 5.1 5.4 5.5 5.6 5.9 6.3 6.5 7.0 7.1 6.9 6.9 6.7 6.7 6.9 7.1 7.1 6.9 6.8 6.7 6.4 6.2
4.8 5.1 5.0 2.3 2.5 4.4 4.9 5.0 6.7 6.8 6.7 6.6 6.1 5.7 5.4 5.3 5.6 5.5 5.3 5.4 5.5 5.2 5.0 4.8 4.9 4.8 4.9 5.0 5.3 5.6 5.8 5.7 5.9 6.3 6.5 6.5 6.8 6.6 6.4 6.2 6.2 6.4 6.6 6.6 6.7 6.7 6.4 6.4 6.1
4.8 4.7 5.0 4.9 4.1 4.0 5.3 5.8 6.7 6.8 6.9 6.6 6.0 5.6 5.5 5.4 5.6 5.2 5.3 5.4 5.3 5.0 4.9 5.0 4.8 4.7 4.8 5.0 5.4 5.8 5.8 5.8 5.9 6.2 6.5 6.6 6.8 6.5 6.2 6.0 5.9 6.0 6.1 6.1 6.2 6.4 6.2 6.1 6.0
4.9 5.3 5.0 5.1 2.3 1.7 4.9 5.6 7.3 7.3 7.0 6.5 6.0 5.8 5.5 5.4 5.4 5.2 5.3 5.4 5.1 4.9 4.8 4.8 4.7 4.7 4.9 5.1 5.6 5.9 5.8 5.7 5.8 6.1 6.5 6.4 6.7 6.5 6.2 6.0 5.8 5.7 5.7 5.7 5.8 5.9 5.8 5.7 5.9
4.8 5.0 5.2 5.3 5.2 2.7 0.5 6.3 7.6 7.3 7.0 6.5 6.2 5.8 5.6 5.5 5.4 5.3 5.2 5.3 5.0 4.8 4.7 4.7 4.6 4.6 5.0 5.3 5.7 5.9 5.8 5.7 5.8 6.1 6.3 6.5 6.6 6.6 6.2 6.0 5.7 5.5 5.5 5.3 5.3 5.5 5.5 5.5 5.7
5.0 5.2 5.4 5.6 5.1 5.1 4.6 6.8 7.4 7.2 6.8 6.6 6.1 5.7 5.7 5.8 5.5 5.3 5.2 5.2 4.8 4.7 4.7 4.7 4.6 4.7 5.0 5.5 5.8 5.8 5.7 5.7 5.8 6.0 6.3 6.6 6.7 6.7 6.2 6.0 5.7 5.5 5.3 5.2 5.2 5.3 5.3 5.4 5.4
Wind_Speed
10 7 2 5 6 7 4 5 2 3 4 4 9 12 16 7 6 6 5 12 18 19 25 25 31 32 32 32 31 33 33 31 31 32 32 32 32 30 27 21 16 11 10 10 10 10 9 9 7
6 3 6 4 6 5 2 3 8 3 9 7 11 7 7 7 6 4 4 14 18 19 22 24 30 31 32 34 32 33 34 32 30 31 31 31 31 31 31 28 22 17 14 12 12 12 11 9 10
2 8 5 5 4 4 4 2 8 10 7 2 4 8 5 6 8 3 6 12 14 19 22 25 31 30 31 33 32 33 33 35 35 35 34 33 31 32 31 30 30 22 17 16 14 14 12 11 10
4 6 5 7 8 7 3 2 6 7 7 8 8 8 5 8 3 2 7 8 13 19 22 23 30 30 31 32 32 32 33 34 34 35 36 34 32 31 30 29 27 27 26 16 19 15 13 12 12
5 5 7 6 8 3 6 3 5 6 5 4 3 5 5 2 5 2 7 13 11 17 22 22 29 31 29 29 32 30 31 33 34 35 36 35 34 32 30 31 29 30 27 23 19 21 16 14 15
5 4 6 4 4 3 3 5 8 11 8 11 8 6 3 2 2 4 6 8 10 11 18 19 23 30 28 29 30 30 29 31 33 35 35 35 35 34 32 30 28 29 29 28 24 20 20 17 18
7 5 5 7 6 3 2 3 4 9 10 6 6 5 3 3 2 3 7 11 11 15 16 20 23 24 24 27 29 28 29 27 31 34 35 35 34 34 33 29 28 29 29 28 26 26 22 20 18
5 5 5 4 4 3 3 3 2 5 4 3 2 4 3 2 2 2 5 7 8 14 17 20 21 21 22 22 26 27 26 26 29 31 34 33 31 32 31 31 30 30 28 28 28 28 26 24 19
4 5 4 6 7 7 1 4 6 6 8 5 5 4 5 7 3 4 4 5 4 6 11 19 20 22 23 21 22 22 23 24 26 26 30 26 23 24 26 28 30 29 28 30 29 31 26 25 16
6 5 5 5 7 7 9 12 6 5 6 5 5 5 5 3 2 4 5 6 7 8 7 15 19 20 20 19 20 18 17 17 19 22 24 22 22 24 25 24 28 30 31 27 29 28 24 20 16
5 5 12 5 10 11 7 6 4 8 4 4 8 4 2 2 5 6 5 4 4 5 5 12 15 18 19 17 19 16 16 16 18 21 23 23 20 20 19 18 20 23 28 22 24 23 18 20 16
10 9 7 6 9 8 8 6 5 4 5 8 8 5 3 3 3 3 4 4 4 5 5 8 13 15 18 16 15 15 14 17 18 19 23 22 17 17 17 15 18 19 22 22 18 17 17 16 17
14 6 7 10 9 7 9 6 6 4 6 6 7 5 5 3 2 1 1 1 4 5 6 6 12 15 17 15 16 15 15 15 16 17 22 23 18 15 16 14 16 17 21 21 18 16 16 12 15
7 14 11 9 9 6 10 3 3 2 4 6 5 5 3 1 3 1 2 2 5 5 6 8 9 13 16 14 16 15 16 17 16 16 18 23 19 17 16 13 14 15 18 22 19 16 9 8 11
17 22 14 4 1 5 8 6 2 3 4 6 4 1 1 2 3 2 4 5 5 3 5 6 6 11 13 14 15 16 15 17 17 17 17 21 19 18 17 15 13 16 17 20 19 18 16 8 9
14 5 5 3 5 1 4 3 4 5 7 5 3 3 2 3 3 4 5 5 5 5 6 6 9 12 14 15 17 16 16 17 18 19 18 20 20 19 16 12 12 18 16 16 12 10 10 10 10
1 4 5 4 4 2 2 3 5 6 5 6 3 2 1 1 1 3 5 6 6 5 6 7 8 8 11 15 18 16 16 15 16 16 17 20 19 19 16 15 16 19 15 11 9 10 10 11 9
6 6 3 4 2 3 3 3 4 5 5 7 5 4 2 1 2 4 6 6 6 5 5 5 5 9 13 12 13 11 11 13 14 14 16 18 17 19 18 15 17 17 11 10 9 12 12 10 10
7 10 6 1 2 4 1 5 6 4 3 6 5 5 3 3 3 4 5 6 7 5 6 6 6 7 5 3 3 3 5 4 5 12 17 17 18 18 18 15 15 16 11 10 11 10 13 10 12
7 12 4 4 1 3 3 3 3 5 5 6 7 6 4 2 5 6 7 6 6 6 5 6 7 6 4 3 3 3 3 3 5 13 14 17 18 18 17 15 10 14 9 9 10 11 11 8 10
2 7 6 6 4 4 4 5 5 5 3 4 5 4 2 2 6 7 8 6 7 8 6 5 6 6 5 9 4 5 6 5 3 6 7 14 18 20 20 20 16 11 8 7 9 10 13 9 10
3 5 5 10 4 3 2 4 4 6 6 6 6 5 3 5 5 5 6 7 8 6 3 5 5 7 7 9 5 6 6 4 3 5 9 13 17 19 19 20 20 15 10 8 8 10 8 8 9
3 7 5 4 4 3 1 2 5 4 7 8 8 7 5 6 7 7 6 6 5 3 4 4 5 7 6 7 5 5 5 4 4 5 8 7 14 18 18 20 18 15 12 9 8 10 9 7 6
8 7 8 5 3 3 3 5 5 5 8 4 4 7 6 7 6 4 5 4 3 3 4 4 7 5 7 6 7 7 7 8 7 8 7 7 7 11 16 19 17 15 13 9 9 8 10 8 8
6 6 3 4 3 5 2 1 8 6 6 8 10 8 7 6 5 4 7 6 1 3 4 4 5 6 7 7 7 7 7 7 7 8 7 8 7 7 9 16 13 12 15 14 14 8 9 9 9
2 6 5 6 3 4 0 5 6 3 2 3 6 5 5 6 3 5 5 3 2 2 3 4 5 6 7 6 7 6 6 4 5 6 6 6 6 7 15 15 16 17 16 15 15 8 7 9 8
4 2 3 6 2 3 3 7 6 2 1 3 5 4 7 6 3 6 5 3 3 1 2 4 5 6 6 6 5 6 6 7 6 8 7 5 10 11 15 16 15 16 14 16 14 8 10 10 8
2 4 2 3 2 2 5 5 5 5 8 7 6 8 6 4 5 6 3 4 2 1 2 5 4 4 4 5 5 4 6 7 8 8 8 7 10 13 13 14 15 14 14 15 14 9 10 10 8
2 2 6 5 4 5 1 6 6 8 10 10 8 7 7 6 7 5 3 3 2 1 4 5 4 5 5 4 3 5 6 6 8 6 7 9 10 13 11 13 11 11 9 12 11 11 11 11 11
2 6 6 5 5 2 3 6 3 6 8 8 8 6 5 5 6 2 6 4 2 2 4 4 3 5 4 3 3 5 6 6 7 8 9 14 9 14 13 14 8 10 11 11 11 12 11 11 11
Wind_Direction
330 343 94 45 57 62 58 14 322 120 70 46 59 78 87 51 48 99 310 349 346 347 345 342 9 11 14 11 11 12 10 8 9 8 10 8 6 4 3 342 291 264 246 233 228 233 227 216 205
329 47 50 64 73 60 7 45 44 89 136 108 52 32 54 67 55 87 10 340 350 349 353 354 11 13 15 16 17 16 15 12 11 9 10 8 7 6 5 4 350 289 264 245 231 231 231 222 204
94 52 65 64 59 92 126 47 91 75 46 53 96 40 34 344 41 72 339 342 354 1 360 4 15 15 15 19 20 18 18 16 12 6 3 2 4 2 3 4 5 351 288 269 250 238 230 220 212
58 30 48 67 78 21 63 286 155 127 65 53 120 75 81 6 76 347 318 2 13 8 6 9 19 18 17 16 17 19 19 18 15 11 11 6 2 360 358 0 358 6 1 301 276 256 237 215 209
44 60 63 76 53 80 31 9 150 76 93 71 87 82 97 63 112 355 5 20 11 359 3 12 19 19 19 17 17 15 17 17 16 13 12 11 7 0 355 354 357 358 358 354 341 288 251 220 206
55 85 82 90 79 76 35 34 81 97 95 115 90 110 77 48 65 356 11 20 14 348 0 10 18 20 20 17 16 16 15 16 15 13 11 9 7 5 359 352 348 350 350 354 349 337 283 238 203
97 72 96 111 135 68 107 73 59 75 68 37 134 87 105 83 11 354 19 22 10 8 7 13 15 14 14 16 14 16 17 17 16 13 10 7 6 5 1 356 348 347 344 347 349 347 336 274 207
96 86 112 85 145 73 7 84 81 66 31 123 90 92 131 154 188 41 10 1 358 7 12 11 11 9 7 11 12 16 16 19 16 12 8 6 3 3 2 0 352 346 348 345 347 347 341 327 246
89 68 106 141 150 136 128 107 5 45 76 37 39 99 144 155 135 50 342 345 350 1 5 14 11 11 8 12 9 12 16 17 13 9 7 3 359 357 359 0 358 352 348 344 343 341 343 328 283
65 88 132 166 132 131 124 107 121 97 87 59 72 62 97 94 105 59 30 15 5 356 353 9 10 9 10 12 6 6 7 10 8 4 2 359 354 355 358 357 2 359 354 341 348 336 338 341 328
39 108 117 84 113 127 118 92 85 125 85 162 154 150 109 68 49 49 37 17 354 319 346 352 3 13 12 5 6 5 4 8 6 5 1 354 352 350 351 357 358 356 352 349 350 328 339 333 328
95 65 99 119 110 111 119 120 84 126 150 144 149 156 147 122 90 83 55 16 332 318 321 344 5 13 13 11 5 0 6 9 6 4 2 358 353 349 346 351 357 356 353 341 331 336 331 318 323
70 89 65 108 105 101 111 104 111 70 106 121 136 125 142 161 129 71 69 330 310 341 323 336 2 10 9 11 5 6 4 6 1 1 0 358 352 348 342 336 355 353 351 343 332 333 326 318 316
131 105 102 106 109 104 111 104 88 101 145 117 135 135 134 127 21 74 31 330 307 305 338 338 360 6 8 5 2 1 8 7 2 354 354 356 352 347 344 329 352 348 348 346 334 331 322 320 316
111 105 98 63 180 113 120 32 71 164 160 149 166 100 341 318 23 12 277 245 261 298 308 347 342 1 5 2 360 0 8 8 2 352 348 351 350 349 346 355 352 337 345 346 345 335 330 339 297
112 82 116 213 174 24 87 190 195 176 163 164 206 259 290 308 325 282 270 253 292 312 338 338 353 1 360 2 358 355 3 7 2 356 352 348 344 343 344 351 342 339 342 344 347 339 329 326 329
256 146 113 189 205 127 88 185 199 177 180 153 191 236 224 10 340 302 295 265 289 302 330 338 349 360 354 2 359 359 4 358 2 358 356 349 345 340 345 352 347 346 342 344 341 343 341 326 322
161 118 120 175 173 76 98 173 154 162 182 168 185 203 176 270 279 301 312 302 299 328 326 346 354 4 358 0 350 357 350 350 2 355 355 347 341 352 351 349 348 345 346 344 341 342 348 331 324
111 117 115 338 127 98 305 168 199 172 151 189 189 209 214 247 302 297 323 339 346 328 346 2 356 357 7 340 337 340 345 330 334 354 344 346 343 344 349 348 346 347 347 335 342 343 348 343 336
112 121 102 36 193 88 154 236 235 207 214 199 194 212 219 322 337 327 326 10 339 320 350 7 12 0 3 349 331 332 318 316 317 343 341 349 347 335 336 338 335 348 344 338 345 348 346 339 342
66 145 173 156 126 52 109 314 211 224 199 183 211 205 200 287 303 310 332 336 331 2 8 12 9 358 15 2 349 336 325 322 323 342 336 336 343 340 333 332 337 326 339 338 344 2 352 335 340
123 128 123 122 105 199 150 272 260 215 214 212 212 213 248 288 297 296 336 331 346 354 18 29 12 18 9 9 8 1 348 339 319 327 327 331 332 338 337 335 335 339 339 343 0 359 343 337 343
152 127 115 106 97 91 212 73 254 157 223 224 220 223 234 257 269 299 318 330 348 22 27 19 13 21 356 9 5 360 338 317 317 330 332 333 337 340 341 343 342 349 352 352 2 353 342 337 337
139 82 47 49 52 12 247 139 271 191 217 200 204 212 223 260 285 331 303 341 33 30 29 21 24 348 12 2 353 347 340 340 354 349 348 345 342 339 343 344 343 345 345 345 0 353 335 338 338
80 75 16 3 4 224 281 186 248 247 229 200 191 202 226 256 287 317 319 344 47 47 20 5 11 359 6 360 354 350 351 353 353 346 345 345 342 340 336 339 340 341 340 348 356 355 337 341 335
86 133 149 194 197 264 328 235 252 299 158 141 152 172 226 264 263 281 295 277 167 74 25 355 359 10 354 350 350 358 357 352 350 343 339 336 338 332 335 338 347 340 340 353 355 352 335 342 336
176 111 153 109 42 33 268 292 309 127 108 145 186 211 244 258 261 272 308 177 183 101 356 356 357 353 348 350 6 4 353 355 348 341 333 333 337 342 342 353 356 350 2 359 353 347 335 343 338
113 123 80 357 95 295 287 275 243 230 222 220 225 230 254 262 270 278 287 168 185 100 337 2 358 321 320 1 24 0 353 350 344 337 334 331 339 346 349 1 359 356 2 3 359 342 337 344 339
46 56 45 114 92 157 241 267 222 221 204 203 221 230 244 261 271 282 165 163 157 123 28 345 341 333 341 12 25 3 353 350 341 334 327 348 344 351 355 1 358 354 7 354 354 346 348 343 347
92 164 143 114 257 152 144 276 248 257 224 187 219 232 236 244 272 238 166 163 152 52 5 335 332 339 349 24 38 6 354 346 341 339 354 360 354 354 356 358 358 2 360 345 347 346 347 349 353